SCP
1 2 2 2 2 2 1 1 1 1 1 1 1 1 1 1 1 1 1 0 1 1 1 1 1 2 2 2 1 1 0 0 0 0 1 1 1 1 1 1 1 0 0
1 1 2 2 2 2 1 1 1 1 1 1 1 1 1 1 1 1 1 1 1 1 1 1 1 2 2 2 1 1 0 0 0 0 1 1 1 1 1 1 1 1 0
1 1 1 2 2 2 1 1 1 1 1 1 1 1 1 1 1 1 1 1 0 1 1 1 1 2 2 2 1 1 0 0 0 1 0 0 0 0 1 1 1 1 1
1 1 1 1 1 1 1 1 1 1 1 1 1 1 1 1 1 1 1 1 1 1 1 1 1 2 2 2 1 1 0 0 0 0 0 0 0 0 0 1 1 1 1
1 1 1 1 1 1 1 1 1 1 1 1 1 1 1 1 1 1 1 1 1 1 1 1 1 2 2 2 1 1 1 1 0 0 0 0 0 0 1 1 1 1 1
1 1 1 1 1 1 1 1 1 1 1 1 1 1 1 1 1 1 1 1 1 1 1 1 1 1 2 2 1 1 1 1 0 0 0 0 0 0 1 1 1 1 1
1 1 1 1 1 1 1 1 1 1 1 1 1 1 1 1 1 1 1 1 1 1 1 1 1 1 1 2 1 1 1 1 0 0 0 0 0 0 1 1 1 1 1
2 1 1 1 1 1 1 1 1 1 1 1 1 1 1 1 1 1 1 1 1 1 1 1 1 1 1 1 1 1 1 1 0 0 0 0 0 1 1 1 1 1 1
2 1 1 1 1 1 1 1 1 1 1 1 1 1 1 1 1 1 1 1 1 1 1 1 1 1 1 1 1 1 1 0 0 0 0 0 0 1 1 1 1 0 0
2 1 1 1 1 1 1 0 0 1 1 1 1 1 1 1 1 1 1 1 1 1 1 1 1 1 1 1 1 1 1 0 0 0 0 0 0 1 1 1 0 0 0
1 1 1 1 1 1 1 0 0 1 1 1 1 1 1 1 1 1 0 1 1 1 1 1 1 1 1 0 0 1 1 0 0 0 0 0 0 0 0 0 0 0 0
1 1 1 1 1 1 1 0 0 1 1 1 1 1 1 1 1 1 1 1 1 1 1 1 1 1 1 1 1 1 1 1 0 0 0 0 0 0 0 0 0 0 0
1 1 1 1 1 1 1 1 1 1 1 1 1 1 1 1 1 1 1 1 1 1 1 1 1 1 1 1 1 1 1 1 1 0 0 0 0 0 0 0 0 0 1
1 1 1 1 1 1 1 1 1 1 1 1 1 1 1 1 1 1 1 1 1 1 1 1 1 1 1 1 1 1 1 1 1 1 0 0 0 0 0 0 0 0 0
1 1 1 1 1 1 1 1 1 1 1 1 1 1 1 1 1 1 1 1 1 1 1 1 1 1 1 1 1 1 1 1 1 1 1 0 0 0 0 0 0 0 0
1 1 1 0 1 1 1 0 0 1 1 1 1 0 0 0 0 1 1 1 0 0 0 1 1 1 1 1 1 1 1 1 1 1 1 0 0 0 0 0 1 1 0
1 1 0 0 0 1 1 0 0 0 1 1 1 0 0 0 0 0 0 0 0 0 0 0 0 0 0 0 0 0 1 1 1 1 1 1 0 0 0 0 1 1 1
0 0 0 0 0 1 1 0 0 0 0 1 1 1 0 0 0 1 1 1 1 1 0 0 0 0 0 0 0 0 0 1 1 1 1 1 0 0 0 0 0 1 1
0 0 0 0 0 1 1 0 0 0 0 0 1 1 0 0 1 1 1 1 1 1 0 0 0 0 0 0 0 0 0 1 1 1 1 0 0 0 0 0 0 0 0
0 0 0 0 0 1 1 0 0 0 0 0 0 0 0 0 1 1 1 1 1 0 0 0 0 0 0 0 0 0 0 1 1 1 0 0 0 0 0 0 0 0 0
0 0 0 0 0 0 0 0 0 0 0 0 0 0 0 0 1 1 1 1 0 0 0 0 0 0 0 0 0 0 0 1 1 1 0 0 0 0 0 0 0 0 0
0 0 0 0 0 0 0 0 0 0 0 0 0 0 0 0 0 1 0 0 0 0 0 0 0 0 0 0 0 0 0 0 0 0 0 0 0 0 0 0 0 0 0
0 0 0 0 0 0 0 0 0 0 0 0 0 0 0 0 0 0 0 0 0 0 0 0 0 0 0 0 0 0 0 0 0 0 0 0 0 0 0 0 0 0 0
0 0 0 0 0 0 0 0 0 0 0 0 0 0 0 0 0 0 0 0 0 0 0 0 0 0 0 0 0 0 0 0 0 0 0 0 0 0 0 0 0 0 0
0 0 0 0 0 0 0 0 0 0 0 0 0 0 0 0 0 0 0 0 0 0 0 0 0 0 0 0 0 0 0 0 0 0 0 0 0 0 0 0 0 0 0
0 0 0 0 0 0 0 0 0 0 0 0 0 0 0 0 0 0 0 0 0 0 0 0 0 0 0 0 0 0 0 0 0 0 0 0 0 0 0 0 0 0 0
Wind_Speed
4 5 5 6 7 7 7 7 7 8 8 8 8 8 8 8 8 8 7 7 7 8 9 9 10 10 10 10 10 10 10 10 10 10 10 10 11 10 10 9 8 9 11
5 6 5 5 6 6 7 7 7 7 8 8 8 8 8 8 8 8 7 7 7 8 9 9 9 9 10 9 9 10 10 10 10 9 8 9 10 10 10 9 9 8 10
5 6 6 4 6 6 7 7 7 7 8 8 8 8 8 8 8 8 7 7 7 7 8 9 9 9 9 9 9 9 10 9 9 7 5 6 8 10 9 9 9 9 9
4 5 5 4 4 6 6 7 7 7 7 7 8 8 8 8 8 7 7 7 7 7 8 8 8 8 9 9 9 9 9 9 7 4 5 6 7 9 9 9 9 9 9
4 5 5 3 4 5 5 6 7 7 7 7 7 8 8 8 7 7 7 7 7 7 7 8 8 8 8 8 8 8 8 7 5 4 6 5 6 8 9 9 9 9 9
4 4 5 3 3 4 4 5 5 6 6 6 7 7 7 7 7 7 7 7 6 7 7 7 7 7 8 8 8 8 7 5 3 5 5 5 5 8 8 8 8 8 8
3 3 4 3 2 3 4 4 4 5 6 6 6 6 6 6 7 6 7 6 6 6 7 7 7 7 7 8 8 8 7 4 4 5 5 5 6 7 7 7 7 7 7
2 2 3 3 2 2 3 3 3 4 6 6 6 6 6 6 6 6 6 6 6 6 7 7 6 7 7 7 8 7 5 3 4 4 4 4 6 6 6 6 6 6 6
3 2 2 3 3 2 2 2 2 3 5 5 6 5 5 5 5 5 5 5 6 6 6 6 6 6 6 6 7 6 5 3 3 3 3 3 4 5 6 6 6 6 6
3 2 2 1 2 2 2 3 2 3 4 5 6 5 5 5 5 5 4 5 5 6 6 6 6 6 6 6 6 6 4 3 3 3 2 3 4 4 5 5 5 5 5
2 1 1 1 1 1 2 2 3 4 4 5 5 6 4 4 4 3 4 4 5 5 5 5 6 6 5 6 5 5 3 2 3 2 2 4 4 4 4 5 5 5 5
0 1 0 1 1 1 1 1 2 2 3 3 3 4 3 2 2 2 4 4 4 4 5 5 6 5 3 3 4 4 2 3 2 2 3 4 3 4 4 4 4 4 4
0 0 1 1 1 1 1 1 1 1 2 2 4 3 3 2 2 2 2 3 3 3 3 4 3 2 2 2 2 2 3 2 2 2 3 3 3 3 3 3 3 4 4
0 1 1 2 1 1 1 1 1 1 1 1 2 3 3 2 2 2 1 1 2 1 2 2 1 2 3 2 2 2 3 2 2 2 3 3 2 2 2 2 2 3 3
1 1 2 2 1 1 1 1 1 1 1 1 1 2 2 2 2 2 1 1 1 1 2 2 2 3 3 3 2 3 2 2 2 2 2 3 3 3 3 3 2 3 3
2 2 2 1 1 0 1 1 1 1 1 1 1 1 2 2 2 2 2 1 1 1 1 2 2 2 2 2 3 3 2 2 2 2 2 2 3 3 3 3 2 2 2
2 2 1 1 0 0 1 1 1 1 1 1 1 1 1 1 2 2 2 1 1 1 2 2 3 2 2 2 3 3 2 2 2 2 1 1 1 2 3 2 3 2 2
2 2 1 1 0 0 1 1 1 1 1 1 1 1 1 1 2 2 2 1 1 1 2 2 3 3 3 2 2 2 2 2 2 2 1 1 1 1 2 3 3 3 2
2 1 1 0 0 1 1 1 1 1 1 1 1 1 1 1 1 1 1 1 2 2 2 2 2 2 3 3 2 2 2 2 2 1 1 1 1 0 0 2 3 4 3
1 0 0 0 0 1 1 1 1 2 2 1 1 1 1 1 1 1 1 1 2 2 2 2 2 2 2 2 2 1 1 1 1 1 1 1 1 0 0 0 0 1 3
1 0 0 0 0 1 1 2 1 1 1 1 1 2 1 1 1 1 1 2 2 2 2 2 2 2 2 2 2 2 2 2 1 1 1 1 1 0 0 0 1 1 1
0 0 0 0 1 1 1 1 2 2 1 1 1 1 2 2 1 1 1 1 1 2 3 3 3 2 2 3 2 2 2 3 2 1 1 1 1 1 0 0 1 1 1
0 1 0 0 0 0 1 2 2 2 1 1 1 1 2 2 1 1 1 0 1 1 2 3 3 3 3 3 2 2 3 3 2 2 2 1 1 0 0 0 1 1 2
1 1 0 0 1 1 1 2 3 2 2 1 0 0 1 1 1 1 1 1 0 1 1 1 2 2 4 3 2 1 1 1 2 2 2 2 1 1 1 1 1 1 2
1 0 0 1 1 1 1 2 2 2 1 1 1 1 1 1 1 1 1 1 1 0 1 1 1 2 3 3 3 2 2 2 2 2 3 2 2 1 1 2 1 1 2
0 0 0 1 1 1 1 2 2 2 2 1 1 1 1 1 1 1 1 1 1 1 1 1 1 2 2 3 2 2 2 2 3 3 3 3 3 1 1 2 2 2 2
Wind_Direction
163 162 156 162 153 146 139 137 133 132 133 133 131 128 125 123 121 121 117 110 115 115 113 107 103 99 94 91 89 86 82 78 76 80 82 81 80 78 76 74 76 80 77
156 160 154 166 156 149 145 141 140 141 141 138 135 132 131 128 125 121 118 115 110 116 115 110 105 101 97 94 92 89 85 81 77 77 85 90 86 82 80 75 69 78 81
152 157 162 169 159 149 144 141 141 144 143 142 140 138 136 132 129 125 120 116 115 109 113 113 108 103 100 97 95 92 90 86 79 78 91 94 91 86 85 84 81 82 83
153 158 162 149 155 148 147 146 146 144 140 142 142 141 139 135 130 127 121 116 115 116 109 108 109 107 104 101 98 97 93 88 80 84 89 87 90 86 83 84 85 82 81
156 161 146 142 147 147 149 150 151 148 143 139 140 142 141 136 132 129 124 119 116 112 113 109 103 110 107 104 103 100 95 89 85 89 86 86 87 86 82 82 83 81 79
155 161 144 138 144 149 148 151 152 147 145 141 143 140 138 134 132 128 125 121 117 114 111 112 105 103 111 110 108 103 97 95 113 89 84 84 86 85 81 80 81 81 79
148 152 147 121 123 135 144 149 154 153 147 142 141 134 128 126 126 125 124 122 120 115 112 107 110 99 109 113 108 104 97 84 95 88 81 82 82 82 80 79 80 81 82
135 136 141 119 112 121 133 137 148 151 144 139 132 130 128 128 126 126 124 122 118 117 114 111 107 107 99 112 109 102 94 94 103 92 86 81 74 79 79 79 81 82 83
120 124 136 158 154 129 115 117 128 141 139 134 130 126 119 119 121 122 119 123 120 116 112 114 112 111 103 111 112 105 95 80 109 94 87 81 71 78 80 80 84 86 83
108 112 123 142 173 173 161 120 110 129 130 127 123 115 109 111 112 109 119 115 121 118 114 117 119 119 111 106 113 108 111 140 111 101 91 80 73 77 80 81 86 89 90
85 86 113 129 142 174 168 134 136 129 126 126 127 122 137 146 141 133 117 109 116 117 117 120 121 116 111 111 114 119 143 135 120 104 90 75 78 75 75 85 88 89 97
81 18 341 170 172 172 164 170 168 160 155 160 151 147 154 149 139 131 105 102 110 117 125 119 119 130 150 137 132 155 147 134 129 113 84 72 79 78 76 84 86 87 91
245 22 337 303 210 180 181 185 176 167 166 171 158 152 146 142 139 145 144 131 134 142 143 133 147 153 149 146 152 155 143 141 130 116 95 79 73 77 77 82 84 86 89
314 336 332 307 260 190 198 185 179 180 179 176 164 159 156 160 161 162 166 157 165 163 161 166 157 153 151 153 152 153 147 147 134 123 100 84 76 87 86 88 90 98 95
296 318 320 313 289 219 177 184 174 193 199 175 161 160 169 172 172 169 164 170 176 176 180 170 165 164 159 152 149 150 143 140 137 137 113 88 72 75 76 70 76 89 97
292 302 309 314 307 244 168 180 172 174 172 161 154 153 175 175 176 174 162 165 170 181 186 178 167 161 152 150 152 150 155 155 152 157 138 119 87 68 64 55 49 56 56
280 288 303 283 328 174 172 170 160 149 149 142 143 145 144 156 171 175 165 167 167 169 175 163 154 158 160 161 161 160 162 174 166 166 151 164 137 94 65 51 38 31 18
280 279 297 319 56 153 161 150 132 124 121 131 134 137 146 149 163 165 162 174 176 171 173 172 168 169 174 178 171 165 169 175 177 166 157 175 181 151 99 58 35 31 22
275 269 272 282 138 172 157 131 115 106 93 78 99 114 147 143 157 159 159 165 175 174 171 170 178 187 175 173 169 170 183 177 173 159 158 165 162 157 133 87 49 30 22
283 261 216 117 116 158 151 136 119 95 83 67 65 58 70 119 148 157 161 163 168 164 161 163 171 181 179 164 143 154 182 174 183 171 179 166 129 109 34 357 119 36 17
26 33 65 102 116 142 163 164 153 139 109 75 51 48 55 62 112 142 173 170 169 164 168 165 162 166 163 147 147 149 162 165 183 181 177 155 131 118 48 337 319 310 313
349 359 8 148 163 170 169 163 173 172 152 112 80 56 46 49 62 90 135 170 173 172 170 169 157 162 160 172 177 173 185 184 176 183 175 170 184 177 231 318 328 326 332
317 304 315 57 100 133 139 143 133 133 121 92 54 41 33 44 54 63 62 173 178 170 184 186 184 183 183 185 204 201 193 195 173 178 185 184 182 226 260 286 319 326 325
279 278 252 121 107 94 112 134 148 155 155 179 220 124 62 58 58 61 61 66 137 168 197 202 215 214 191 189 202 247 269 204 198 185 180 185 197 242 265 289 298 307 310
261 244 191 127 107 99 113 128 150 150 151 146 108 88 65 62 55 46 48 67 47 269 220 212 229 233 210 204 200 202 207 221 234 212 207 199 212 239 256 271 279 287 295
108 113 152 145 113 105 121 130 140 150 146 134 103 80 32 22 35 26 23 32 25 353 314 260 233 240 234 224 216 212 203 206 207 216 221 218 227 235 259 265 263 269 280